Welcome to mirrors.dotsrc.org

All our mirrors of open source software are available via http, https and ftp. More information about our mirrors including statistics and contact information is available on our mirror info pages.

For information about dotsrc.org and our other services please go to our website.

Index of /trisquel/pool/main/m/

File Name  ↓ File Size  ↓ Date  ↓ 
Parent directory/--
metatheme-gilouche/-2010-02-12 15:14:47
macchanger-gtk/-2010-02-12 15:27:03
mailplate/-2010-02-12 15:27:06
metainit/-2010-02-12 15:27:19
mffm-timecode/-2010-02-12 15:27:20
moblin-cursor-theme/-2010-02-12 15:27:27
mova/-2010-02-12 15:27:37
munin-libvirt-plugins/-2010-02-12 15:27:49
micro-proxy/-2010-02-12 15:48:16
moblin-menus/-2010-04-29 17:27:00
moblin-sound-theme/-2010-04-29 17:27:01
manpages-pt/-2011-07-14 15:53:53
mythbuntu-gdm-theme/-2011-07-14 15:53:55
mozart-stdlib/-2011-07-14 15:53:55
magictouch/-2012-09-15 12:29:34
multitet/-2012-09-15 12:29:59
mttroff/-2012-09-15 12:29:59
multipartposthandler/-2012-09-15 12:32:16
mono-debugger-libs/-2014-02-06 19:46:33
minetest-mod-moreores/-2014-02-06 19:51:52
minetest-mod-worldedit/-2014-02-06 19:51:52
munin-plugins-openstack/-2014-02-06 19:52:21
mirror.js/-2014-02-06 19:52:31
music-hub/-2014-02-06 20:10:51
mnemonicode/-2014-02-06 20:14:55
mmsd/-2014-02-06 20:14:55
mooproxy/-2014-03-01 21:26:22
mussh/-2014-03-02 00:05:27
mythbuntu-lightdm-theme/-2014-03-02 00:05:27
maliit-plugins/-2014-03-16 18:35:25
mythes-sv/-2014-03-19 22:43:37
monafont-ttf/-2016-06-24 19:28:12
mathcomp/-2016-06-24 20:02:57
maven-compiler-plugin-2.5/-2016-06-24 20:02:59
mlbviewer/-2016-06-24 20:22:30
mopidy-podcast-gpodder/-2016-06-24 20:22:59
mopidy-dirble/-2016-06-24 20:22:59
mopidy-local-sqlite/-2016-06-24 20:22:59
mopidy-youtube/-2016-06-24 20:23:00
mod-authnz-persona/-2016-06-24 21:25:31
mariadb-client-lgpl/-2016-06-24 21:35:35
mate-accountsdialog/-2016-06-24 21:48:46
mate-netspeed/-2016-06-24 21:48:49
media-hub/-2016-06-24 21:48:55
mutt-kz/-2016-06-24 21:50:01
mago/-2018-04-30 14:49:54
magicor/-2018-04-30 14:49:54
manpages-es/-2018-04-30 14:49:57
maven-embedder/-2018-04-30 14:49:58
mce-dev/-2018-04-30 14:49:59
migrationtools/-2018-04-30 14:50:05
mozart/-2018-04-30 14:50:10
mpg123-el/-2018-04-30 14:50:12
msn-pecan/-2018-04-30 14:50:14
myspell-hy/-2018-04-30 14:50:15
myspell-ku/-2018-04-30 14:50:15
mariadb-10.0/-2019-02-14 06:18:19
moxie.js/-2019-04-15 00:00:48
malai/-2019-04-15 00:03:09
math-combinatorics-clojure/-2019-04-15 00:03:28
math-numeric-tower-clojure/-2019-04-15 00:03:29
maven-antrun-extended-plugin/-2019-04-15 00:03:32
maven-artifact-transfer/-2019-04-15 00:03:32
maven-deploy-plugin/-2019-04-15 00:03:33
maven-file-management/-2019-04-15 00:03:34
maven-repository-builder/-2019-04-15 00:03:35
maven-mapping/-2019-04-15 00:03:35
maven-reporting-api/-2019-04-15 00:03:35
maven-reporting-exec/-2019-04-15 00:03:35
maven-shared-incremental/-2019-04-15 00:03:36
maven-script-interpreter/-2019-04-15 00:03:36
maven-shared-io/-2019-04-15 00:03:36
maven-verifier/-2019-04-15 00:03:37
medley-clojure/-2019-04-15 00:03:45
metrics-clojure/-2019-04-15 00:03:56
mqtt-client/-2019-04-15 00:04:57
munge-maven-plugin/-2019-04-15 00:05:15
mustache-java/-2019-04-15 00:05:26
macsyfinder/-2019-04-15 00:43:24
mail-expire/-2019-04-15 00:43:25
mailman-api/-2019-04-15 00:43:26
manpages-hu/-2019-04-15 00:44:18
manpages-es-extra/-2019-04-15 00:44:18
manpages-tr/-2019-04-15 00:44:19
mate-icon-theme-faenza/-2019-04-15 00:44:55
metacity-themes/-2019-04-15 00:46:28
metamonger/-2019-04-15 00:46:28
mh-book/-2019-04-15 00:47:45
midge/-2019-04-15 00:47:49
minetest-mod-advspawning/-2019-04-15 00:47:53
minetest-mod-animalmaterials/-2019-04-15 00:47:53
minetest-mod-animals/-2019-04-15 00:47:56
minetest-mod-maidroid/-2019-04-15 00:47:56
minetest-mod-mobf/-2019-04-15 00:48:03
minetest-mod-mobf-core/-2019-04-15 00:48:04
minetest-mod-torches/-2019-04-15 00:48:04
minlog/-2019-04-15 00:48:08
mkdocs-bootswatch/-2019-04-15 00:48:24
mkalias/-2019-04-15 00:48:24
mkchromecast/-2019-04-15 00:48:24
mock/-2019-04-15 00:48:43
mono-reference-assemblies/-2019-04-15 00:49:10
mp3report/-2019-04-15 00:49:42
mps-youtube/-2019-04-15 00:49:47
mrb/-2019-04-15 00:49:48
mrtg-ping-probe/-2019-04-15 00:51:24
mx44/-2019-04-15 00:52:53
myspell-sq/-2019-04-15 00:53:04
mysql-sandbox/-2019-04-15 00:53:07
mithril/-2019-04-15 00:56:43
mgrs/-2019-04-15 00:56:43
mipp/-2019-04-15 01:15:06
mapbox-vector-tile/-2019-04-15 01:23:56
mozilla-password-editor/-2019-04-15 02:26:30
mariadb-connector-c/-2019-04-15 04:20:38
measurement-kit/-2019-04-15 04:20:46
mozjs38/-2019-04-15 04:21:12
mathicgb/-2019-04-15 04:34:31
memleax/-2019-04-15 04:34:44
mkelfimage/-2019-04-15 04:35:08
mosquitto-auth-plugin/-2019-04-15 04:35:33
mpi-testsuite/-2019-04-15 04:35:44
mythtvfs-fuse/-2019-04-15 04:36:25
m2ext/-2019-04-15 04:47:48
m17n-docs/-2020-05-30 22:43:53
makejail/-2020-05-30 22:43:54
mangonel/-2020-05-30 22:43:54
martian/-2020-05-30 22:43:55
matchbox-themes-extra/-2020-05-30 22:43:55
mapivi/-2020-05-30 22:43:55
matchbox/-2020-05-30 22:43:55
mathpiper/-2020-05-30 22:43:56
maven-antrun-plugin/-2020-05-30 22:43:56
maven-filtering/-2020-05-30 22:43:57
maven-invoker/-2020-05-30 22:43:57
maximus/-2020-05-30 22:43:58
mboxcheck/-2020-05-30 22:43:58
mcmcpack/-2020-05-30 22:44:00
mcollective-plugins/-2020-05-30 22:44:00
mensis/-2020-05-30 22:44:04
mendexk/-2020-05-30 22:44:04
memaker/-2020-05-30 22:44:04
menu-l10n/-2020-05-30 22:44:05
mh-e/-2020-05-30 22:44:07
mirrorkit/-2020-05-30 22:44:08
mockobjects/-2020-05-30 22:44:09
mod-spamhaus/-2020-05-30 22:44:09
mochikit/-2020-05-30 22:44:09
monkeytail/-2020-05-30 22:44:09
mon-client/-2020-05-30 22:44:09
mootools/-2020-05-30 22:44:10
mp3roaster/-2020-05-30 22:44:11
mountmedia/-2020-05-30 22:44:11
mozplugger/-2020-05-30 22:44:11
msva-perl/-2020-05-30 22:44:12
msp430mcu/-2020-05-30 22:44:12
msgpack/-2020-05-30 22:44:12
mr/-2020-05-30 22:44:12
mtkbabel/-2020-05-30 22:44:13
musiclibrarian/-2020-05-30 22:44:13
murrine-themes/-2020-05-30 22:44:13
muttprofile/-2020-05-30 22:44:14
myspell-sk/-2020-05-30 22:44:14
myspell-hr/-2020-05-30 22:44:14
mxallowd/-2020-05-30 22:44:14
muttprint/-2020-05-30 22:44:14
myspell-el-gr/-2020-05-30 22:44:14
mythbuntu-log-grabber/-2020-05-30 22:44:15
mythbuntu-diskless/-2020-05-30 22:44:15
mysql-mmm/-2020-05-30 22:44:15
mythes-it/-2020-05-30 22:44:15
mythbuntu-lirc-generator/-2020-05-30 22:44:15
mythbuntu-control-centre/-2020-05-30 22:44:15
monkeysign/-2020-12-11 00:05:41
mango-lassi/-2020-12-11 00:05:41
massxpert/-2020-12-11 00:05:41
matchit/-2020-12-11 00:05:41
moin/-2020-12-11 00:05:41
mac-fdisk/-2020-12-11 00:05:41
mhonarc/-2020-12-11 00:05:41
maven-reporting-impl/-2020-12-11 00:05:41
maitreya/-2020-12-11 00:05:41
make-doc-non-dfsg/-2020-12-11 00:05:41
mobyle/-2020-12-11 00:05:41
mimms/-2020-12-11 00:05:41
macs/-2020-12-11 00:05:41
mime-construct/-2020-12-11 00:05:41
meliae/-2020-12-11 00:05:41
module-build-cipux/-2020-12-11 00:05:41
moap/-2020-12-11 00:05:41
maven-source-plugin/-2020-12-11 00:05:41
maven-stapler-plugin/-2020-12-11 00:05:41
mediawiki-math/-2020-12-11 00:05:41
mkvmlinuz/-2020-12-11 00:05:41
mknbi/-2020-12-11 00:05:41
mixmaster/-2020-12-11 00:05:41
manpages-fr/-2020-12-11 00:05:41
mail-notification/-2020-12-11 00:05:41
maven-site-plugin/-2020-12-11 00:05:41
mondrian/-2020-12-11 00:05:41
maven-project-info-reports-plugin/-2020-12-11 00:05:41
molds/-2020-12-11 00:05:41
maven2-core/-2020-12-11 00:05:41
migration-assistant/-2020-12-11 00:05:41
meta-kde-telepathy/-2020-12-11 00:05:41
medit/-2020-12-11 00:05:41
memoise/-2020-12-11 00:05:41
me-tv/-2020-12-11 00:05:41
mirage/-2020-12-11 00:05:41
mathjax-docs/-2020-12-11 00:05:41
mandelbulber/-2020-12-11 00:05:41
messaging-app/-2020-12-11 00:05:41
mididings/-2020-12-11 00:05:41
mcrl2/-2020-12-11 00:05:41
m-tx/-2020-12-11 00:05:41
manpages-fr-extra/-2020-12-11 00:05:41
megaglest-data/-2020-12-11 00:05:41
mobyle-tutorials/-2020-12-11 00:05:41
mauve/-2020-12-11 00:05:41
maven-war-plugin/-2020-12-11 00:05:41
magpierss/-2020-12-11 00:05:41
mlpy/-2020-12-11 00:05:41
meep-mpich2/-2020-12-11 00:05:41
mercurial-server/-2020-12-11 00:05:41
modestmaps-js/-2020-12-11 00:05:41
mdbus/-2020-12-11 00:05:41
monkeystudio/-2020-12-11 00:05:41
mmake/-2020-12-11 00:05:41
maven-assembly-plugin/-2020-12-11 00:05:41
mcollective-server-provisioner/-2020-12-11 00:05:41
mobyle-programs/-2020-12-11 00:05:41
moksha.hub/-2020-12-11 00:05:41
mod-authn-webid/-2020-12-11 00:05:41
maildirsync/-2020-12-11 00:05:41
memcachedb/-2020-12-11 00:05:41
mapnik-vector-tile/-2020-12-11 00:05:41
mathpartir/-2020-12-11 00:05:41
markdown/-2020-12-11 00:05:41
maven-ejb-plugin/-2020-12-11 00:05:41
maven-ear-plugin/-2020-12-11 00:05:41
makehuman/-2020-12-11 00:05:41
maven-shared-jar/-2020-12-11 00:05:41
maven-dependency-tree/-2020-12-11 00:05:41
maven-archiver/-2020-12-11 00:05:41
mediaplayer-app/-2020-12-11 00:05:41
maven-docck-plugin/-2020-12-11 00:05:41
mimefilter/-2020-12-11 00:05:41
mail-spf-perl/-2020-12-11 00:05:41
maven-indexer/-2020-12-11 00:05:41
mmass/-2020-12-11 00:05:41
mediatomb/-2020-12-11 00:05:41
mediascanner2/-2020-12-11 00:05:41
mi2svg/-2020-12-11 00:05:41
mailping/-2020-12-11 00:05:41
maven-ant-tasks/-2020-12-11 00:05:41
mingw-ocaml/-2020-12-11 00:05:41
meta-unison/-2020-12-11 00:05:41
merkaartor/-2020-12-11 00:05:41
man-pages-it/-2020-12-11 00:05:41
metche/-2020-12-11 00:05:41
monajat/-2020-12-11 00:05:41
model-builder/-2020-12-11 00:05:41
meep-lam4/-2020-12-11 00:05:41
makepatch/-2020-12-11 00:05:41
midgard2-core/-2020-12-11 00:05:41
maven-invoker-plugin/-2020-12-11 00:05:41
maven-install-plugin/-2020-12-11 00:05:41
mcelog/-2020-12-11 00:05:41
makepp/-2020-12-11 00:05:41
modestmaps-py/-2020-12-11 00:05:41
ming/-2020-12-11 00:05:41
mon/-2020-12-11 00:05:41
mnemosyne-blog/-2020-12-11 00:05:41
mat/-2020-12-11 00:05:41
mono-zeroconf/-2020-12-11 00:05:42
muddleftpd/-2020-12-11 00:05:42
moodle-debian-edu-theme/-2020-12-11 00:05:42
msgpack-python/-2020-12-11 00:05:42
musixtex/-2020-12-11 00:05:42
mozjs/-2020-12-11 00:05:42
mythbuntu-bare/-2020-12-11 00:05:42
monodevelop/-2020-12-11 00:05:42
musique/-2020-12-11 00:05:42
mytop/-2020-12-11 00:05:42
mplayerthumbs/-2020-12-11 00:05:42
multiverse-core/-2020-12-11 00:05:42
mtp/-2020-12-11 00:05:42
mpris-remote/-2020-12-11 00:05:42
mtpfs/-2020-12-11 00:05:42
mountall/-2020-12-11 00:05:42
mp4v2/-2020-12-11 00:05:42
mysql-utilities/-2020-12-11 00:05:42
monodevelop-database/-2020-12-11 00:05:42
mrpt/-2020-12-11 00:05:42
mpage/-2020-12-11 00:05:42
mysql-workbench/-2020-12-11 00:05:42
mrxvt/-2020-12-11 00:05:42
mozvoikko/-2020-12-11 00:05:42
mtasc/-2020-12-11 00:05:42
mysql-connector-net/-2020-12-11 00:05:42
mysql-connector-java/-2020-12-11 00:05:42
mythexport/-2020-12-11 00:05:42
msrtool/-2020-12-11 00:05:42
mono-addins/-2020-12-11 00:05:42
musica/-2020-12-11 00:05:42
mythbuntu-common/-2020-12-11 00:05:42
mrtg-rrd/-2020-12-11 00:05:42
mrtrix/-2020-12-11 00:05:42
myghty/-2020-12-11 00:05:42
monobristol/-2020-12-11 00:05:42
mono-upnp/-2020-12-11 00:05:42
mozjs24/-2020-12-11 00:05:42
monotone/-2020-12-11 00:05:42
mono.reflection/-2020-12-11 00:05:42
mythbuntu-live-autostart/-2020-12-11 00:05:42
myghtyutils/-2020-12-11 00:05:42
moodle/-2020-12-11 00:05:42
mx/-2020-12-11 00:05:42
mylvmbackup/-2020-12-11 00:05:42
mythbuntu-default-settings/-2020-12-11 00:05:42
microcode-initrd/-2020-12-11 19:08:03
mp3diags/-2020-12-11 19:18:22
mdcfg/-2020-12-11 19:29:39
media-retriever/-2020-12-11 19:29:39
myspell-lv/-2020-12-11 19:31:22
meson-mode/-2020-12-11 19:35:35
muttrc-mode-el/-2020-12-11 19:35:35
magit-annex/-2020-12-11 19:35:35
magit-popup/-2020-12-11 19:35:35
mutt-alias-el/-2020-12-11 19:35:35
message-templ/-2020-12-11 19:35:35
makey/-2020-12-11 19:35:35
markdown-mode/-2020-12-11 19:35:35
markdown-toc-el/-2020-12-11 19:35:35
minimap-el/-2020-12-11 19:35:35
monokai-emacs/-2020-12-11 19:35:35
magithub/-2020-12-11 19:35:35
mocker-el/-2020-12-11 19:35:35
muse-el/-2020-12-11 19:35:35
m-buffer-el/-2020-12-11 19:35:35
move-text-el/-2020-12-11 19:35:35
mochiweb/-2020-12-11 19:35:45
mpfit/-2020-12-11 19:40:58
meta-gnustep/-2020-12-11 19:43:22
mp4parser/-2020-12-11 19:52:35
modernizr/-2020-12-11 19:52:42
mathjax/-2020-12-11 19:52:42
mediaelement/-2020-12-11 19:52:42
mojarra/-2020-12-11 19:52:44
mac-widgets/-2020-12-11 19:54:00
mapbox-geometry/-2020-12-11 19:54:03
mapbox-wagyu/-2020-12-11 19:54:03
mapbox-variant/-2020-12-11 19:54:03
mapsforge/-2020-12-11 19:54:04
mariadb-connector-java/-2020-12-11 19:54:04
maven-bundle-plugin/-2020-12-11 19:54:05
mavibot/-2020-12-11 19:54:06
maven-javadoc-plugin/-2020-12-11 19:54:06
maven-processor-plugin/-2020-12-11 19:54:06
maven-parent/-2020-12-11 19:54:06
mckoisqldb/-2020-12-11 19:54:06
maven-common-artifact-filters/-2020-12-11 19:54:06
maven-shared-utils/-2020-12-11 19:54:06
maven-compiler-plugin/-2020-12-11 19:54:06
maven-plugin-tools/-2020-12-11 19:54:06
maven-resources-plugin/-2020-12-11 19:54:06
maven-resolver/-2020-12-11 19:54:06
maven-jar-plugin/-2020-12-11 19:54:06
maven-dependency-plugin/-2020-12-11 19:54:06
maven-enforcer/-2020-12-11 19:54:06
maven-scm/-2020-12-11 19:54:06
maven-clean-plugin/-2020-12-11 19:54:06
maven-shade-plugin/-2020-12-11 19:54:06
maven-jaxb2-plugin/-2020-12-11 19:54:06
maven-plugin-testing/-2020-12-11 19:54:06
maven-doxia-tools/-2020-12-11 19:54:06
mdds/-2020-12-11 19:54:06
maven-dependency-analyzer/-2020-12-11 19:54:06
metro-policy/-2020-12-11 19:54:07
memkind/-2020-12-11 19:54:07
messagingmenu-sharp/-2020-12-11 19:54:07
metainf-services/-2020-12-11 19:54:07
mimepull/-2020-12-11 19:54:09
milib/-2020-12-11 19:54:09
mina2/-2020-12-11 19:54:09
minify-maven-plugin/-2020-12-11 19:54:09
mina/-2020-12-11 19:54:09
mkl-dnn/-2020-12-11 19:54:09
mmtf-java/-2020-12-11 19:54:10
modulator/-2020-12-11 19:54:10
modello/-2020-12-11 19:54:10
modello-maven-plugin/-2020-12-11 19:54:10
mongo-java-driver/-2020-12-11 19:54:10
mojo-executor/-2020-12-11 19:54:10
mockito/-2020-12-11 19:54:10
morfologik-stemming/-2020-12-11 19:54:12
ms-gsl/-2020-12-11 19:54:13
msv/-2020-12-11 19:54:13
mpj/-2020-12-11 19:54:13
mpfrc++/-2020-12-11 19:54:13
msgpack-java/-2020-12-11 19:54:13
mvel/-2020-12-11 19:54:15
maven-replacer-plugin/-2020-12-11 19:56:13
m17n-db/-2020-12-11 19:58:41
maas/-2020-12-11 19:58:41
madison-lite/-2020-12-11 19:58:41
magit/-2020-12-11 19:58:43
magic-wormhole/-2020-12-11 19:58:43
magicmaze/-2020-12-11 19:58:43
magic-wormhole-transit-relay/-2020-12-11 19:58:43
magnus/-2020-12-11 19:58:43
mailgraph/-2020-12-11 19:58:43
makedev/-2020-12-11 19:58:44
mailman3/-2020-12-11 19:58:44
makepasswd/-2020-12-11 19:58:44
mailscripts/-2020-12-11 19:58:44
maint-guide/-2020-12-11 19:58:44
mailnag/-2020-12-11 19:58:44
makeself/-2020-12-11 19:58:44
mailman-suite/-2020-12-11 19:58:44
manderlbot/-2020-12-11 19:58:47
manpages/-2020-12-11 19:58:48
manpages-pl/-2020-12-11 19:58:48
mapdamage/-2020-12-11 19:58:48
manpages-zh/-2020-12-11 19:58:48
manpages-ja/-2020-12-11 19:58:48
manpages-de/-2020-12-11 19:58:48
manuskript/-2020-12-11 19:58:48
mapnik-reference/-2020-12-11 19:58:49
marionnet/-2020-12-11 19:59:03
matchbox-common/-2020-12-11 19:59:05
mason/-2020-12-11 19:59:05
mat2/-2020-12-11 19:59:05
mate-hud/-2020-12-11 19:59:06
mate-icon-theme/-2020-12-11 19:59:06
mate-backgrounds/-2020-12-11 19:59:06
mate-common/-2020-12-11 19:59:06
mate-optimus/-2020-12-11 19:59:06
mate-menu/-2020-12-11 19:59:06
mate-themes/-2020-12-11 19:59:07
mate-user-guide/-2020-12-11 19:59:07
materia-gtk-theme/-2020-12-11 19:59:07
maven-ant-helper/-2020-12-11 19:59:08
matlab-support/-2020-12-11 19:59:08
maven/-2020-12-11 19:59:08
matrix-synapse/-2020-12-11 19:59:08
matroxset/-2020-12-11 19:59:08
maven-debian-helper/-2020-12-11 19:59:08
matrix-synapse-ldap3/-2020-12-11 19:59:08
matlab2tikz/-2020-12-11 19:59:08
maven-cache-cleanup/-2020-12-11 19:59:08
maven-repo-helper/-2020-12-11 19:59:08
maybe/-2020-12-11 19:59:09
mbed-test-wrapper/-2020-12-11 19:59:10
mcu8051ide/-2020-12-11 19:59:10
mcollective/-2020-12-11 19:59:10
mdevctl/-2020-12-11 19:59:10
mcomix/-2020-12-11 19:59:10
mecab-ipadic/-2020-12-11 19:59:10
mb2md/-2020-12-11 19:59:10
mecab-jumandic/-2020-12-11 19:59:11
mecab-naist-jdic/-2020-12-11 19:59:11
media-player-info/-2020-12-11 19:59:11
m2l-pyqt/-2020-12-11 19:59:12
mediathekview/-2020-12-11 19:59:12
mediawiki/-2020-12-11 19:59:12
mes/-2020-12-11 19:59:13
membernator/-2020-12-11 19:59:13
mercurial-extension-utils/-2020-12-11 19:59:13
menu-xdg/-2020-12-11 19:59:13
mencal/-2020-12-11 19:59:13
meld/-2020-12-11 19:59:13
mercurial-keyring/-2020-12-11 19:59:13
mercurial-crecord/-2020-12-11 19:59:13
menulibre/-2020-12-11 19:59:13
memtest86+/-2020-12-11 19:59:13
melting/-2020-12-11 19:59:13
megadown/-2020-12-11 19:59:13
mess-desktop-entries/-2020-12-11 19:59:14
metaphlan2/-2020-12-11 19:59:14
meshlab/-2020-12-11 19:59:14
metastudent/-2020-12-11 19:59:20
metaphlan2-data/-2020-12-11 19:59:20
metastudent-data/-2020-12-11 19:59:27
metastudent-data-2/-2020-12-11 19:59:27
mhap/-2020-12-11 19:59:28
mha4mysql-node/-2020-12-11 19:59:28
mha4mysql-manager/-2020-12-11 19:59:28
mhc/-2020-12-11 19:59:28
micropython/-2020-12-11 19:59:29
microbegps/-2020-12-11 19:59:29
minetest-mod-protector/-2020-12-11 19:59:30
minetest-mod-mobs-redo/-2020-12-11 19:59:30
minetest-mod-intllib/-2020-12-11 19:59:30
mime-support/-2020-12-11 19:59:30
minetest-mod-character-creator/-2020-12-11 19:59:30
minetest-mod-lucky-block/-2020-12-11 19:59:30
minetest-mod-pipeworks/-2020-12-11 19:59:30
minetest-mod-basic-materials/-2020-12-11 19:59:30
mikutter/-2020-12-11 19:59:30
minetest-mod-3d-armor/-2020-12-11 19:59:30
minetest-mod-ethereal/-2020-12-11 19:59:30
minetest-mod-homedecor/-2020-12-11 19:59:30
minetest-mod-craftguide/-2020-12-11 19:59:30
minetest-mod-infinite-chest/-2020-12-11 19:59:30
minetest-mod-mesecons/-2020-12-11 19:59:30
minetest-mod-quartz/-2020-12-11 19:59:30
minetest-mod-nether/-2020-12-11 19:59:30
minetest-mod-skyblock/-2020-12-11 19:59:30
minetest-mod-moreblocks/-2020-12-11 19:59:30
minetest-mod-currency/-2020-12-11 19:59:30
minetest-mod-throwing/-2020-12-11 19:59:31
minetest-mod-unified-inventory/-2020-12-11 19:59:31
minetest-mod-unifieddyes/-2020-12-11 19:59:31
mini-httpd-run/-2020-12-11 19:59:32
minimac4/-2020-12-11 19:59:32
mini-dinstall/-2020-12-11 19:59:32
mipe/-2020-12-11 19:59:33
mirmon/-2020-12-11 19:59:33
miscfiles/-2020-12-11 19:59:33
misspell-fixer/-2020-12-11 19:59:33
mit-scheme/-2020-12-11 19:59:34
mitmproxy/-2020-12-11 19:59:34
mkdocs-nature/-2020-12-11 19:59:35
mk-configure/-2020-12-11 19:59:35
mkdocs-bootstrap/-2020-12-11 19:59:35
mlbstreamer/-2020-12-11 19:59:35
mkgmap/-2020-12-11 19:59:35
mkgmapgui/-2020-12-11 19:59:35
mkgmap-splitter/-2020-12-11 19:59:35
mldemos/-2020-12-11 19:59:36
mm-common/-2020-12-11 19:59:36
mm3d/-2020-12-11 19:59:36
mmm-mode/-2020-12-11 19:59:36
mma/-2020-12-11 19:59:36
mmdebstrap/-2020-12-11 19:59:36
mnemosyne/-2020-12-11 19:59:37
mobile-atlas-creator/-2020-12-11 19:59:37
mobile-broadband-provider-info/-2020-12-11 19:59:37
module-assistant/-2020-12-11 19:59:37
mmseqs2/-2020-12-11 19:59:37
modem-cmd/-2020-12-11 19:59:37
modsecurity-crs/-2020-12-11 19:59:37
moblin-icon-theme/-2020-12-11 19:59:37
moka-icon-theme/-2020-12-11 19:59:39
mom/-2020-12-11 19:59:39
molly-guard/-2020-12-11 19:59:39
monitorix/-2020-12-11 19:59:40
mono-tools/-2020-12-11 19:59:46
mono-basic/-2020-12-11 19:59:46
mopidy-dleyna/-2020-12-11 19:59:47
mopidy-alsamixer/-2020-12-11 19:59:47
mopidy-podcast/-2020-12-11 19:59:47
mopidy/-2020-12-11 19:59:47
mopidy-gmusic/-2020-12-11 19:59:47
mopidy-podcast-itunes/-2020-12-11 19:59:47
mopidy-internetarchive/-2020-12-11 19:59:47
mopidy-mpris/-2020-12-11 19:59:47
moosic/-2020-12-11 19:59:47
mopidy-local/-2020-12-11 19:59:47
mopidy-tunein/-2020-12-11 19:59:47
mopidy-scrobbler/-2020-12-11 19:59:47
mopidy-mpd/-2020-12-11 19:59:47
mopidy-beets/-2020-12-11 19:59:47
mopidy-soundcloud/-2020-12-11 19:59:47
mopidy-somafm/-2020-12-11 19:59:47
movim/-2020-12-11 19:59:50
mozilla-devscripts/-2020-12-11 19:59:51
mpdtoys/-2020-12-11 19:59:51
mpd-sima/-2020-12-11 19:59:51
mplayer-blue/-2020-12-11 19:59:51
mozo/-2020-12-11 19:59:51
mpdris2/-2020-12-11 19:59:51
mp3cd/-2020-12-11 19:59:51
mrename/-2020-12-11 19:59:51
mp3burn/-2020-12-11 19:59:51
mrtrix3/-2020-12-11 19:59:52
mrrescue/-2020-12-11 19:59:52
msr-tools/-2020-12-11 19:59:53
mtpolicyd/-2020-12-11 19:59:54
mu-editor/-2020-12-11 19:59:55
multistrap/-2020-12-11 19:59:55
mugshot/-2020-12-11 19:59:55
multex-base/-2020-12-11 19:59:55
multiboot/-2020-12-11 19:59:55
mudlet/-2020-12-11 19:59:55
mueller/-2020-12-11 19:59:55
mu-cite/-2020-12-11 19:59:55
munin/-2020-12-11 19:59:56
mupen64plus/-2020-12-11 19:59:58
mupen64plus-input-sdl/-2020-12-11 19:59:58
mupen64plus-rsp-z64/-2020-12-11 19:59:58
mupen64plus-video-glide64/-2020-12-11 19:59:58
mupen64plus-video-arachnoid/-2020-12-11 19:59:58
mupen64plus-rsp-hle/-2020-12-11 19:59:58
mupen64plus-video-glide64mk2/-2020-12-11 19:59:58
mupen64plus-video-rice/-2020-12-11 19:59:58
mupen64plus-audio-sdl/-2020-12-11 19:59:58
mupen64plus-ui-console/-2020-12-11 19:59:58
mupen64plus-qt/-2020-12-11 19:59:58
mupen64plus-video-z64/-2020-12-11 19:59:58
mupen64plus-core/-2020-12-11 19:59:58
musescore-general-soundfont/-2020-12-11 20:00:13
musescore-general-soundfont-small/-2020-12-11 20:00:14
mypager/-2020-12-11 20:00:15
mussort/-2020-12-11 20:00:15
mycli/-2020-12-11 20:00:15
myrepos/-2020-12-11 20:00:15
myspell-fa/-2020-12-11 20:00:15
mwc/-2020-12-11 20:00:15
mypaint-brushes/-2020-12-11 20:00:15
myspell.pt/-2020-12-11 20:00:16
myspell-pt-br/-2020-12-11 20:00:16
mysqltuner/-2020-12-11 20:00:30
mythtv-status/-2020-12-11 20:00:31
mustache.js/-2020-12-11 20:01:22
moment-timezone.js/-2020-12-11 20:01:22
meta-ocaml/-2020-12-11 20:01:38
mariadb-connector-odbc/-2020-12-11 20:01:44
mimeo/-2020-12-11 20:03:59
mandrill/-2020-12-11 20:04:39
monasca-statsd/-2020-12-11 20:04:49
mocker/-2020-12-11 20:04:49
modernize/-2020-12-11 20:05:52
migrate/-2020-12-11 20:05:55
manuel/-2020-12-11 20:05:55
mdp/-2020-12-11 20:05:55
mando/-2020-12-11 20:05:55
metaconfig/-2020-12-11 20:05:55
mailmanclient/-2020-12-11 20:05:55
minidb/-2020-12-11 20:05:55
mapproxy/-2020-12-11 20:05:55
magnum-ui/-2020-12-11 20:05:55
mini-buildd/-2020-12-11 20:05:55
manila-ui/-2020-12-11 20:05:55
mailman-hyperkitty/-2020-12-11 20:05:55
mallard-ducktype/-2020-12-11 20:05:55
minetest-mod-pycraft/-2020-12-11 20:05:55
masakari-monitors/-2020-12-11 20:05:55
mimerender/-2020-12-11 20:05:55
mako/-2020-12-11 20:05:55
magic-wormhole-mailbox-server/-2020-12-11 20:05:55
murano-dashboard/-2020-12-11 20:05:56
mutagen/-2020-12-11 20:05:56
murano/-2020-12-11 20:05:56
murano-agent/-2020-12-11 20:05:56
mutatormath/-2020-12-11 20:05:56
mwclient/-2020-12-11 20:05:56
mistral/-2020-12-11 20:05:56
moksha.common/-2020-12-11 20:05:56
myhdl/-2020-12-11 20:05:56
mockldap/-2020-12-11 20:05:56
mygpoclient/-2020-12-11 20:05:56
mistral-dashboard/-2020-12-11 20:05:56
mpl-scatter-density/-2020-12-11 20:05:56
microsoft-authentication-library-for-python/-2020-12-11 20:05:56
more-itertools/-2020-12-11 20:05:56
montage-wrapper/-2020-12-11 20:05:56
mmllib/-2020-12-11 20:05:56
microsoft-authentication-extensions-for-python/-2020-12-11 20:05:56
mistune/-2020-12-11 20:05:56
munkres/-2020-12-11 20:05:56
mrtparse/-2020-12-11 20:05:56
musicbrainzngs/-2020-12-11 20:05:56
mirtop/-2020-12-11 20:05:56
mpmath/-2020-12-11 20:05:56
mysql-connector-python/-2020-12-11 20:05:57
misc3d/-2020-12-11 20:09:02
multcomp/-2020-12-11 20:09:03
medicalterms/-2020-12-11 20:17:36
mplayer-skins/-2021-01-23 13:00:31
manila/-2021-03-18 19:03:50
mkosi/-2021-05-06 13:02:32
mariadb-10.1/-2021-05-12 01:02:36
masakari/-2021-06-21 13:00:41
mate-desktop-environment/-2021-07-30 19:00:35
main-menu/-2021-09-20 23:33:32
monkeysphere/-2021-09-20 23:33:41
meta-gnome3/-2021-09-20 23:33:58
mate-menus/-2021-09-20 23:34:15
mate-session-manager/-2021-09-20 23:35:07
mate-panel/-2021-09-20 23:35:07
mplayer/-2021-09-20 23:35:08
modules/-2021-09-20 23:35:44
moblin-gtk-engine/-2021-09-20 23:37:51
magyarispell/-2021-09-20 23:38:16
meta-kde/-2021-09-20 23:38:33
mod-mono/-2021-09-20 23:39:02
mod-gnutls/-2021-09-20 23:39:02
mod-authz-securepass/-2021-09-20 23:39:02
mod-mime-xattr/-2021-09-20 23:39:02
mod-dnssd/-2021-09-20 23:39:02
mod-vhost-ldap/-2021-09-20 23:39:03
mod-wsgi/-2021-09-20 23:39:03
modsecurity-apache/-2021-09-20 23:39:03
mod-proxy-msrpc/-2021-09-20 23:39:03
mpm-itk/-2021-09-20 23:39:03
magic-haskell/-2021-09-20 23:41:04
missingh/-2021-09-20 23:41:05
mlgmp/-2021-09-20 23:41:38
madness/-2021-09-20 23:42:50
madlib/-2021-09-20 23:42:50
maloc/-2021-09-20 23:42:52
mathic/-2021-09-20 23:42:56
maxflow/-2021-09-20 23:42:57
md4c/-2021-09-20 23:42:57
meanwhile/-2021-09-20 23:42:57
mediastreamer2/-2021-09-20 23:42:58
medialibrary/-2021-09-20 23:42:58
mercator/-2021-09-20 23:42:59
meschach/-2021-09-20 23:42:59
memtailor/-2021-09-20 23:42:59
menu-cache/-2021-09-20 23:42:59
metrohash/-2021-09-20 23:42:59
mir-core/-2021-09-20 23:43:01
mikmatch/-2021-09-20 23:43:01
mimetic/-2021-09-20 23:43:01
mimelib1/-2021-09-20 23:43:01
mini18n/-2021-09-20 23:43:01
mm/-2021-09-20 23:43:02
mlpcap/-2021-09-20 23:43:02
mmdb/-2021-09-20 23:43:02
mlv/-2021-09-20 23:43:02
modglue/-2021-09-20 23:43:02
mono-fuse/-2021-09-20 23:43:03
mongo-cxx-driver-legacy/-2021-09-20 23:43:03
mongo-c-driver/-2021-09-20 23:43:03
modsecurity/-2021-09-20 23:43:03
morsmall/-2021-09-20 23:43:05
movit/-2021-09-20 23:43:06
mozjs52/-2021-09-20 23:43:06
mpfi/-2021-09-20 23:43:07
mpclib3/-2021-09-20 23:43:07
mrmpi/-2021-09-20 23:43:08
mstch/-2021-09-20 23:43:08
msgpuck/-2021-09-20 23:43:08
msgpack-c/-2021-09-20 23:43:08
muparserx/-2021-09-20 23:43:10
muparser/-2021-09-20 23:43:10
mysql++/-2021-09-20 23:43:11
mygui/-2021-09-20 23:43:11
mysql-ocaml/-2021-09-20 23:43:11
mustache-d/-2021-09-20 23:43:11
mythes/-2021-09-20 23:43:12
mysql-connector-c++/-2021-09-20 23:43:12
mclibs/-2021-09-20 23:44:00
macopix/-2021-09-20 23:46:32
madbomber/-2021-09-20 23:46:32
m17n-im-config/-2021-09-20 23:46:32
m17n-lib/-2021-09-20 23:46:32
madplay/-2021-09-20 23:46:32
mafft/-2021-09-20 23:46:32
m2vrequantiser/-2021-09-20 23:46:32
maffilter/-2021-09-20 23:46:32
madwimax/-2021-09-20 23:46:32
macutils/-2021-09-20 23:46:32
macfanctld/-2021-09-20 23:46:32
mactelnet/-2021-09-20 23:46:32
maas-enlist/-2021-09-20 23:46:32
macchanger/-2021-09-20 23:46:32
m16c-flash/-2021-09-20 23:46:32
mac-robber/-2021-09-20 23:46:32
maildir-utils/-2021-09-20 23:46:33
maildrop/-2021-09-20 23:46:33
maildir-filter/-2021-09-20 23:46:33
mailsync/-2021-09-20 23:46:33
magic/-2021-09-20 23:46:33
mailfilter/-2021-09-20 23:46:33
mailavenger/-2021-09-20 23:46:33
mahimahi/-2021-09-20 23:46:33
mailtextbody/-2021-09-20 23:46:33
magicrescue/-2021-09-20 23:46:33
magicfilter/-2021-09-20 23:46:33
magics++/-2021-09-20 23:46:33
mailagent/-2021-09-20 23:46:33
mailcheck/-2021-09-20 23:46:33
mailfront/-2021-09-20 23:46:33
mah-jong/-2021-09-20 23:46:33
makedepf90/-2021-09-20 23:46:34
mairix/-2021-09-20 23:46:34
makebootfat/-2021-09-20 23:46:34
malaga/-2021-09-20 23:46:34
maim/-2021-09-20 23:46:34
mako-notifier/-2021-09-20 23:46:34
makexvpics/-2021-09-20 23:46:34
mailto/-2021-09-20 23:46:34
makefs/-2021-09-20 23:46:34
maliit-framework/-2021-09-20 23:46:35
mancala/-2021-09-20 23:46:35
mandelbulber2/-2021-09-20 23:46:35
manaplus/-2021-09-20 23:46:35
maliit-inputcontext-gtk/-2021-09-20 23:46:35
mapcode/-2021-09-20 23:46:36
mapsembler2/-2021-09-20 23:46:36
maqview/-2021-09-20 23:46:36
maq/-2021-09-20 23:46:36
mapcache/-2021-09-20 23:46:36
mangler/-2021-09-20 23:46:36
mandos/-2021-09-20 23:46:36
mapnik/-2021-09-20 23:46:36
maradns/-2021-09-20 23:46:36
marco/-2021-09-20 23:46:37
maria/-2021-09-20 23:46:37
marsshooter/-2021-09-20 23:46:39
mariadb-10.3/-2021-09-20 23:46:39
maskprocessor/-2021-09-20 23:46:39
mash/-2021-09-20 23:46:39
masscan/-2021-09-20 23:46:40
mate-applets/-2021-09-20 23:46:40
masqmail/-2021-09-20 23:46:40
mate-user-share/-2021-09-20 23:46:40
mate-utils/-2021-09-20 23:46:40
mate-desktop/-2021-09-20 23:46:40
mate-netbook/-2021-09-20 23:46:40
matchbox-desktop/-2021-09-20 23:46:40
massif-visualizer/-2021-09-20 23:46:40
mate-dock-applet/-2021-09-20 23:46:40
mate-notification-daemon/-2021-09-20 23:46:40
mate-system-monitor/-2021-09-20 23:46:40
mate-equake-applet/-2021-09-20 23:46:40
matchbox-window-manager/-2021-09-20 23:46:40
mate-screensaver/-2021-09-20 23:46:40
mate-settings-daemon/-2021-09-20 23:46:40
mate-terminal/-2021-09-20 23:46:40
mate-polkit/-2021-09-20 23:46:40
matchbox-panel-manager/-2021-09-20 23:46:40
matchbox-keyboard/-2021-09-20 23:46:40
matchbox-panel/-2021-09-20 23:46:40
matanza/-2021-09-20 23:46:40
mate-power-manager/-2021-09-20 23:46:40
mate-calc/-2021-09-20 23:46:40
mate-control-center/-2021-09-20 23:46:40
mate-window-applets/-2021-09-20 23:46:40
mathomatic/-2021-09-20 23:46:41
mauve-aligner/-2021-09-20 23:46:41
mathtex/-2021-09-20 23:46:41
maude/-2021-09-20 23:46:41
maxima-sage/-2021-09-20 23:46:42
mbt/-2021-09-20 23:46:43
mayavi2/-2021-09-20 23:46:43
mbuffer/-2021-09-20 23:46:43
mazeofgalious/-2021-09-20 23:46:43
mdns-scan/-2021-09-20 23:46:43
mcron/-2021-09-20 23:46:43
mc/-2021-09-20 23:46:43
mbw/-2021-09-20 23:46:43
mdm/-2021-09-20 23:46:43
mcp-plugins/-2021-09-20 23:46:43
mbtserver/-2021-09-20 23:46:43
mccs/-2021-09-20 23:46:43
mda-lv2/-2021-09-20 23:46:43
mboxgrep/-2021-09-20 23:46:43
mcabber/-2021-09-20 23:46:43
mdetect/-2021-09-20 23:46:43
mbr/-2021-09-20 23:46:43
mdk4/-2021-09-20 23:46:43
mcstrans/-2021-09-20 23:46:43
mbpfan/-2021-09-20 23:46:43
mdk3/-2021-09-20 23:46:43
mblaze/-2021-09-20 23:46:43
mcrypt/-2021-09-20 23:46:43
mcl/-2021-09-20 23:46:43
mdk/-2021-09-20 23:46:43
mbox-importer/-2021-09-20 23:46:43
mdp-src/-2021-09-20 23:46:43
mcpp/-2021-09-20 23:46:43
mdf2iso/-2021-09-20 23:46:43
mediawiki2latex/-2021-09-20 23:46:44
mediaconch/-2021-09-20 23:46:44
medusa/-2021-09-20 23:46:44
mednafen/-2021-09-20 23:46:44
mediainfo/-2021-09-20 23:46:44
mednaffe/-2021-09-20 23:46:44
memdump/-2021-09-20 23:46:45
memtester/-2021-09-20 23:46:45
mender-client/-2021-09-20 23:46:45
memlockd/-2021-09-20 23:46:45
mender-cli/-2021-09-20 23:46:45
memstat/-2021-09-20 23:46:45
megaglest/-2021-09-20 23:46:45
memcached/-2021-09-20 23:46:45
memtool/-2021-09-20 23:46:45
members/-2021-09-20 23:46:45
megatools/-2021-09-20 23:46:45
meritous/-2021-09-20 23:46:46
menhir/-2021-09-20 23:46:46
mercurial-buildpackage/-2021-09-20 23:46:46
mergelog/-2021-09-20 23:46:46
merkleeyes/-2021-09-20 23:46:46
mergerfs/-2021-09-20 23:46:46
menu/-2021-09-20 23:46:46
mesa-demos/-2021-09-20 23:46:47
mfoc/-2021-09-20 23:46:48
meteo-qt/-2021-09-20 23:46:48
meterec/-2021-09-20 23:46:48
metastore/-2021-09-20 23:46:48
metacam/-2021-09-20 23:46:48
metapixel/-2021-09-20 23:46:48
mew-beta/-2021-09-20 23:46:48
metamath/-2021-09-20 23:46:48
metacity/-2021-09-20 23:46:48
mffm-fftw/-2021-09-20 23:46:48
metar/-2021-09-20 23:46:48
mew/-2021-09-20 23:46:48
meterbridge/-2021-09-20 23:46:48
metview/-2021-09-20 23:46:48
mescc-tools/-2021-09-20 23:46:48
mftrace/-2021-09-20 23:46:48
metis/-2021-09-20 23:46:48
mfcuk/-2021-09-20 23:46:48
mgdiff/-2021-09-20 23:46:49
mg/-2021-09-20 23:46:49
mgba/-2021-09-20 23:46:49
mia/-2021-09-20 23:46:49
mgetty/-2021-09-20 23:46:49
mhddfs/-2021-09-20 23:46:49
miaviewit/-2021-09-20 23:46:49
mgt/-2021-09-20 23:46:49
mgen/-2021-09-20 23:46:49
mhwaveedit/-2021-09-20 23:46:49
mialmpick/-2021-09-20 23:46:49
mgp/-2021-09-20 23:46:49
microdc2/-2021-09-20 23:46:50
micro/-2021-09-20 23:46:50
microcom/-2021-09-20 23:46:50
micro-httpd/-2021-09-20 23:46:50
miceamaze/-2021-09-20 23:46:50
midicsv/-2021-09-20 23:46:51
milou/-2021-09-20 23:46:51
mighttpd2/-2021-09-20 23:46:51
mimedefang/-2021-09-20 23:46:51
milkytracker/-2021-09-20 23:46:51
midori/-2021-09-20 23:46:51
mikmod/-2021-09-20 23:46:51
milter-greylist/-2021-09-20 23:46:51
midisnoop/-2021-09-20 23:46:51
mimetex/-2021-09-20 23:46:51
micropolis-activity/-2021-09-20 23:46:51
miller/-2021-09-20 23:46:51
midish/-2021-09-20 23:46:51
minetestmapper/-2021-09-20 23:46:52
minia/-2021-09-20 23:46:52
miniasm/-2021-09-20 23:46:52
minica/-2021-09-20 23:46:52
minicoredumper/-2021-09-20 23:46:52
minidjvu/-2021-09-20 23:46:52
mingetty/-2021-09-20 23:46:52
minetest/-2021-09-20 23:46:52
minc-tools/-2021-09-20 23:46:52
minder/-2021-09-20 23:46:52
mini-httpd/-2021-09-20 23:46:52
minicom/-2021-09-20 23:46:52
minbif/-2021-09-20 23:46:52
minizinc-ide/-2021-09-20 23:46:53
ministat/-2021-09-20 23:46:53
minimap/-2021-09-20 23:46:53
minisapserver/-2021-09-20 23:46:53
minidlna/-2021-09-20 23:46:53
minisat2/-2021-09-20 23:46:53
minitube/-2021-09-20 23:46:53
minpack/-2021-09-20 23:46:53
minimap2/-2021-09-20 23:46:53
minimodem/-2021-09-20 23:46:53
minizip/-2021-09-20 23:46:53
minisat+/-2021-09-20 23:46:53
miniupnpd/-2021-09-20 23:46:53
ministocks/-2021-09-20 23:46:53
minuet/-2021-09-20 23:46:53
minizinc/-2021-09-20 23:46:53
minissdpd/-2021-09-20 23:46:53
mininet/-2021-09-20 23:46:53
mklibs/-2021-09-20 23:46:54
mixxx/-2021-09-20 23:46:54
mktorrent/-2021-09-20 23:46:54
mkcue/-2021-09-20 23:46:54
mknfonts.tool/-2021-09-20 23:46:54
miredo/-2021-09-20 23:46:54
mir/-2021-09-20 23:46:54
missidentify/-2021-09-20 23:46:54
mixer.app/-2021-09-20 23:46:54
mira/-2021-09-20 23:46:54
missfits/-2021-09-20 23:46:54
miwm/-2021-09-20 23:46:54
mirrormagic/-2021-09-20 23:46:54
mksh/-2021-09-20 23:46:54
misery/-2021-09-20 23:46:54
mkvtoolnix/-2021-09-20 23:46:55
mldonkey/-2021-09-20 23:46:55
mlmmj/-2021-09-20 23:46:55
mlocate/-2021-09-20 23:46:55
mle/-2021-09-20 23:46:55
mlterm/-2021-09-20 23:46:56
mlpost/-2021-09-20 23:46:56
mlton/-2021-09-20 23:46:57
mocassin/-2021-09-20 23:46:57
mlucas/-2021-09-20 23:46:57
mmc-utils/-2021-09-20 23:46:57
moarvm/-2021-09-20 23:46:57
mlv-smile/-2021-09-20 23:46:57
moc/-2021-09-20 23:46:57
mmorph/-2021-09-20 23:46:57
mmv/-2021-09-20 23:46:57
mmh/-2021-09-20 23:46:57
mokomaze/-2021-09-20 23:46:58
modem-manager-gui/-2021-09-20 23:46:58
mod-gearman/-2021-09-20 23:46:58
mon-contrib/-2021-09-20 23:46:58
modplugtools/-2021-09-20 23:46:58
modemmanager-qt/-2021-09-20 23:46:58
mokutil/-2021-09-20 23:46:58
mockery/-2021-09-20 23:46:58
mona/-2021-09-20 23:46:58
mongo-tools/-2021-09-20 23:46:59
mongrel2/-2021-09-20 23:46:59
monitoring-plugins/-2021-09-20 23:46:59
monit/-2021-09-20 23:46:59
monopd/-2021-09-20 23:47:00
mono/-2021-09-20 23:47:00
mopac7/-2021-09-20 23:47:01
moria/-2021-09-20 23:47:01
moonshot-gss-eap/-2021-09-20 23:47:01
moreutils/-2021-09-20 23:47:01
monster-masher/-2021-09-20 23:47:01
moon-buggy/-2021-09-20 23:47:01
monsterz/-2021-09-20 23:47:01
moonshot-ui/-2021-09-20 23:47:01
monotone-viz/-2021-09-20 23:47:01
moonshot-trust-router/-2021-09-20 23:47:01
morbig/-2021-09-20 23:47:01
moon-lander/-2021-09-20 23:47:01
morris/-2021-09-20 23:47:02
mosh/-2021-09-20 23:47:02
morty/-2021-09-20 23:47:02
mosquitto/-2021-09-20 23:47:02
mountpy/-2021-09-20 23:47:02
morse2ascii/-2021-09-20 23:47:02
morse-x/-2021-09-20 23:47:02
moserial/-2021-09-20 23:47:02
motion/-2021-09-20 23:47:02
morla/-2021-09-20 23:47:02
mothur/-2021-09-20 23:47:02
morsegen/-2021-09-20 23:47:02
mouseemu/-2021-09-20 23:47:02
most/-2021-09-20 23:47:02
morse/-2021-09-20 23:47:02
mp3blaster/-2021-09-20 23:47:03
mousetweaks/-2021-09-20 23:47:03
mousetrap/-2021-09-20 23:47:03
mousepad/-2021-09-20 23:47:03
mpqc/-2021-09-20 23:47:04
mp3val/-2021-09-20 23:47:04
mpdas/-2021-09-20 23:47:04
mpg321/-2021-09-20 23:47:04
mpdcron/-2021-09-20 23:47:04
mp3rename/-2021-09-20 23:47:04
mp3splt/-2021-09-20 23:47:04
mpop/-2021-09-20 23:47:04
mpgtx/-2021-09-20 23:47:04
mpb/-2021-09-20 23:47:04
mp3check/-2021-09-20 23:47:04
mpegdemux/-2021-09-20 23:47:04
mp3info/-2021-09-20 23:47:04
mp3guessenc/-2021-09-20 23:47:04
mp3wrap/-2021-09-20 23:47:04
mplinuxman/-2021-09-20 23:47:04
mp4h/-2021-09-20 23:47:04
mpc123/-2021-09-20 23:47:04
mpdcon.app/-2021-09-20 23:47:04
mpdscribble/-2021-09-20 23:47:04
mpc/-2021-09-20 23:47:04
mpack/-2021-09-20 23:47:04
mppenc/-2021-09-20 23:47:04
mpgrafic/-2021-09-20 23:47:04
mpd/-2021-09-20 23:47:04
mpich/-2021-09-20 23:47:04
mpt-status/-2021-09-20 23:47:05
mrd6/-2021-09-20 23:47:05
mrboom/-2021-09-20 23:47:05
mriconvert/-2021-09-20 23:47:05
mrbayes/-2021-09-20 23:47:05
mricron/-2021-09-20 23:47:05
mpv/-2021-09-20 23:47:05
mptp/-2021-09-20 23:47:05
mpqc3/-2021-09-20 23:47:05
msi-keyboard/-2021-09-20 23:47:06
mseed2sac/-2021-09-20 23:47:06
mruby/-2021-09-20 23:47:06
mrs/-2021-09-20 23:47:06
mstflint/-2021-09-20 23:47:06
msp430-libc/-2021-09-20 23:47:06
msxpertsuite/-2021-09-20 23:47:06
mssh/-2021-09-20 23:47:06
mrtdreader/-2021-09-20 23:47:06
mscompress/-2021-09-20 23:47:06
mrtgutils/-2021-09-20 23:47:06
mrtg/-2021-09-20 23:47:06
mspdebug/-2021-09-20 23:47:06
msktutil/-2021-09-20 23:47:06
msmtp/-2021-09-20 23:47:06
mscgen/-2021-09-20 23:47:06
mt-st/-2021-09-20 23:47:06
msort/-2021-09-20 23:47:06
mudita24/-2021-09-20 23:47:07
mtail/-2021-09-20 23:47:07
mtools/-2021-09-20 23:47:07
mtree-netbsd/-2021-09-20 23:47:07
mtink/-2021-09-20 23:47:07
mtd-utils/-2021-09-20 23:47:07
muchsync/-2021-09-20 23:47:07
mtx/-2021-09-20 23:47:07
mtr/-2021-09-20 23:47:07
mtbl/-2021-09-20 23:47:07
mu-cade/-2021-09-20 23:47:07
mtpaint/-2021-09-20 23:47:07
multimon/-2021-09-20 23:47:08
muffin/-2021-09-20 23:47:08
multimail/-2021-09-20 23:47:08
munin-c/-2021-09-20 23:47:08
multiwatch/-2021-09-20 23:47:08
multitime/-2021-09-20 23:47:08
mumps/-2021-09-20 23:47:08
multitee/-2021-09-20 23:47:08
mumudvb/-2021-09-20 23:47:08
multitail/-2021-09-20 23:47:08
multimon-ng/-2021-09-20 23:47:08
mummer/-2021-09-20 23:47:08
multicat/-2021-09-20 23:47:08
muon/-2021-09-20 23:47:09
munipack/-2021-09-20 23:47:09
murasaki/-2021-09-20 23:47:10
mupdf/-2021-09-20 23:47:10
muroard/-2021-09-20 23:47:10
muroar/-2021-09-20 23:47:10
muscle/-2021-09-20 23:47:10
mustang/-2021-09-20 23:47:11
mustang-plug/-2021-09-20 23:47:11
mutrace/-2021-09-20 23:47:11
musescore/-2021-09-20 23:47:11
music123/-2021-09-20 23:47:11
mutextrace/-2021-09-20 23:47:11
musl/-2021-09-20 23:47:11
muse/-2021-09-20 23:47:11
myrescue/-2021-09-20 23:47:12
mutt/-2021-09-20 23:47:12
mydumper/-2021-09-20 23:47:12
myproxy/-2021-09-20 23:47:12
mxt-app/-2021-09-20 23:47:12
mysecureshell/-2021-09-20 23:47:12
mwrap/-2021-09-20 23:47:12
myspell/-2021-09-20 23:47:12
mypaint/-2021-09-20 23:47:12
mutt-vc-query/-2021-09-20 23:47:12
mysqmail/-2021-09-20 23:47:32
mz/-2021-09-20 23:47:32
mysqltcl/-2021-09-20 23:47:32
microbiomeutil/-2021-09-20 23:47:34
mdbtools/-2021-09-20 23:48:09
marble/-2021-09-20 23:49:22
m2300w/-2021-09-20 23:49:35
min12xxw/-2021-09-20 23:49:35
magics-python/-2021-09-20 23:50:30
m2crypto/-2021-09-20 23:50:30
mailutils/-2021-09-20 23:50:30
mapserver/-2021-09-20 23:50:31
med-fichier/-2021-09-20 23:50:31
matplotlib/-2021-09-20 23:50:31
milksnake/-2021-09-20 23:50:32
minieigen/-2021-09-20 23:50:32
meep-mpi-default/-2021-09-20 23:50:32
miniupnpc/-2021-09-20 23:50:32
meep/-2021-09-20 23:50:32
meep-openmpi/-2021-09-20 23:50:32
montage/-2021-09-20 23:50:33
morse-simulator/-2021-09-20 23:50:33
mlpack/-2021-09-20 23:50:33
mwparserfromhell/-2021-09-20 23:50:34
music/-2021-09-20 23:50:34
mpi4py-fft/-2021-09-20 23:50:34
mpi4py/-2021-09-20 23:50:34
mshr/-2021-09-20 23:50:34
mypy/-2021-09-20 23:50:35
mgcv/-2021-09-20 23:52:30
mvtnorm/-2021-09-20 23:52:31
mnormt/-2021-09-20 23:52:31
marisa/-2021-09-20 23:53:18
musescore-sftools/-2021-09-20 23:53:35
memchan/-2021-09-20 23:54:12
mathgl/-2021-09-20 23:54:46
motif/-2021-09-20 23:54:51
mozc/-2021-09-20 23:54:52
mswatch/-2021-09-20 23:55:18
msitools/-2021-09-20 23:55:28
maxima/-2021-09-20 23:55:39
mysql-defaults/-2021-09-20 23:56:41
multipath-tools/-2021-09-20 23:59:00
mhash/-2021-09-20 23:59:35
mbedtls/-2021-09-20 23:59:35
mpdecimal/-2021-09-20 23:59:36
mxml/-2021-09-20 23:59:36
mozjs68/-2021-09-20 23:59:36
mpfr4/-2021-09-20 23:59:36
m4/-2021-09-21 00:00:15
man2html/-2021-09-21 00:00:15
mdadm/-2021-09-21 00:00:15
mawk/-2021-09-21 00:00:15
make-dfsg/-2021-09-21 00:00:15
mdocml/-2021-09-21 00:00:15
man-db/-2021-09-21 00:00:15
mpi-defaults/-2021-09-21 00:00:16
mtdev/-2021-09-21 00:00:16
mpeg2dec/-2021-09-21 00:00:16
modemmanager/-2021-09-21 00:00:16
mjpegtools/-2021-09-21 00:00:16
mpg123/-2021-09-21 00:00:16
munge/-2021-09-21 00:00:16
mingw-w64/-2021-09-21 00:00:16
markupsafe/-2021-09-21 00:01:15
mecab/-2021-09-21 00:01:20
mongodb/-2021-10-04 19:02:30
mercurial/-2021-10-05 01:07:40
meson/-2021-10-18 13:02:02
mysql-5.7/-2021-10-25 19:06:20
mysql-8.0/-2021-10-25 19:06:35
mailman/-2021-11-01 12:59:00
magnum/-2021-11-02 00:01:25
makedumpfile/-2021-11-05 01:00:01
mate-media/-2021-11-08 06:22:58
mutter/-2021-11-17 00:59:47
mlt/-2021-11-17 19:03:21
mumble/-2021-11-20 01:07:16
mate-sensors-applet/-2021-11-20 01:07:53
mate-indicator-applet/-2021-11-27 03:34:46
mate-tweak/-2021-12-01 07:10:09
mesa/-2021-12-01 13:03:30